1998-067UQ

Last updated on Thu Jan 05 2023 00:02:05 GMT+0000 (Coordinated Universal Time)

1 55123U 98067UQ 23004.59974703 .00067656 00000+0 11351-2 0 9991 2 55123 51.6430 58.8087 0003001 278.7860 81.2790 15.51171177 1021
UTC large
Height (km)
Speed (km/s)
/
Latitude / Longitude
Inclination (degrees)
Orbital Period (minutes)
Azimuth
Elevation
Range (km)
Doppler Factor

Next 0 passes for location: London (51.5072 / 0.1276)

Sorry there are no passes over London.